Currituck, NC

10:39 AM EST on November 20, 2019 (GMT -0500)
Currituck

Weather History for KONX - October, 2019

Change the Weather History Date:

Tuesday, October 15, 2019

  Actual Average (WUND) Record (WUND)
Temperature  
Mean Temperature 62 °F -  
Max Temperature 91 °F - - (-1)
Min Temperature 52 °F - - (-1)
Degree Days  
Heating Degree Days 4    
Growing Degree Days 12 (Base 50)    
Moisture  
Dew Point 60 °F    
Average Humidity 92    
Maximum Humidity 100    
Minimum Humidity 72    
Precipitation  
Precipitation 0.00 in - - ()
Sea Level Pressure  
Sea Level Pressure 30.09 in    
Wind  
Wind Speed 2 mph ()    
Max Wind Speed 10 mph    
Max Gust Speed -    
Visibility 7.5 miles    
Events Fog    
Averages and records for this station are not official NWS values.
T = Trace of Precipitation, MM = Missing Value Source: Averaged Metar Reports

Daily Weather History Graph

Daily Weather History Graph

Search for Another Location

Airport or City:

Astronomy

Oct. 15, 2019 Rise Set
Actual Time 7:10 AM EDT 6:28 PM EDT
Civil Twilight 6:45 AM EDT 6:54 PM EDT
Nautical Twilight 6:15 AM EDT 7:24 PM EDT
Astronomical Twilight 5:45 AM EDT 7:53 PM EDT
Moon 7:49 PM EDT (10/15) 8:37 AM EDT (10/15)
Length of Visible Light 12h 09m
Length of Day
11h 17m
Full, 97% of the Moon is Illuminated
Oct 15
Full
Oct 21
Last Quarter
Oct 27
New
Nov 4
First Quarter
Nov 12
Full

Hourly Weather History & Observations

Time (EDT) Temp. Dew Point Humidity Pressure Visibility Wind Dir Wind Speed Gust Speed Precip Events Conditions
12:15 AM 59.5 °F 59.5 °F 100% 30.08 in 0.2 mi Calm Calm - N/A Fog Fog
12:35 AM 59.5 °F 59.5 °F 100% 30.08 in 0.2 mi Calm Calm - N/A Fog Fog
12:55 AM 59.7 °F 59.7 °F 100% 30.08 in 0.2 mi Calm Calm - N/A Fog Fog
1:15 AM 59.2 °F 59.2 °F 100% 30.09 in 0.2 mi Calm Calm - N/A Fog Fog
1:35 AM 59.0 °F 59.0 °F 100% 30.09 in 0.2 mi Calm Calm - N/A Fog Fog
1:55 AM 58.6 °F 58.6 °F 100% 30.09 in 0.5 mi Calm Calm - N/A Fog Fog
2:15 AM 58.1 °F 58.1 °F 100% 30.09 in 0.5 mi Calm Calm - N/A Fog Fog
2:35 AM 58.3 °F 58.3 °F 100% 30.09 in 0.2 mi Calm Calm - N/A Fog Fog
2:55 AM 57.9 °F 57.9 °F 100% 30.08 in 0.2 mi Calm Calm - N/A Fog Fog
3:15 AM 57.2 °F 57.2 °F 100% 30.08 in 0.2 mi Calm Calm - N/A Fog Fog
3:35 AM 57.0 °F 57.0 °F 100% 30.08 in 0.2 mi Calm Calm - N/A Fog Fog
3:55 AM 56.8 °F 56.8 °F 100% 30.08 in 0.2 mi Calm Calm - N/A Fog Fog
4:15 AM 56.5 °F 56.5 °F 100% 30.08 in 0.2 mi Calm Calm - N/A Fog Fog
4:35 AM 56.3 °F 56.3 °F 100% 30.09 in 0.2 mi Calm Calm - N/A Fog Fog
4:55 AM 55.4 °F 55.4 °F 100% 30.09 in 0.5 mi Calm Calm - N/A Fog Fog
5:15 AM 54.9 °F 54.9 °F 100% 30.09 in 0.5 mi Calm Calm - N/A Fog Fog
5:35 AM 54.9 °F 54.9 °F 100% 30.09 in 0.8 mi Calm Calm - N/A   Overcast
5:55 AM 53.6 °F 53.6 °F 100% 30.09 in 4.0 mi Calm Calm - N/A   Scattered Clouds
6:15 AM 54.3 °F 54.3 °F 100% 30.10 in 10.0 mi West 3.5 mph - N/A   Clear
6:35 AM 54.1 °F 54.1 °F 100% 30.11 in 10.0 mi Calm Calm - N/A   Clear
6:55 AM 54.0 °F 54.0 °F 100% 30.11 in 10.0 mi Calm Calm - N/A   Clear
7:15 AM 53.1 °F 53.1 °F 100% 30.11 in 5.0 mi Calm Calm - N/A   Clear
7:35 AM 52.2 °F 52.2 °F 100% 30.11 in 10.0 mi Calm Calm - N/A   Clear
7:55 AM 53.4 °F 53.4 °F 100% 30.12 in 10.0 mi Calm Calm - N/A   Clear
8:15 AM 55.0 °F 55.0 °F 100% 30.12 in 10.0 mi Calm Calm - N/A   Clear
8:35 AM 57.0 °F 57.0 °F 100% 30.13 in 10.0 mi Calm Calm - N/A   Clear
8:55 AM 58.6 °F 58.6 °F 100% 30.14 in 10.0 mi Calm Calm - N/A   Clear
9:15 AM 61.0 °F 61.0 °F 100% 30.14 in 10.0 mi NNE 3.5 mph - N/A   Clear
9:35 AM 63.5 °F 63.5 °F 100% 30.14 in 10.0 mi NE 4.6 mph - N/A   Clear
9:55 AM 65.3 °F 64.6 °F 98% 30.15 in 10.0 mi NNE 4.6 mph - N/A   Scattered Clouds
10:15 AM 67.1 °F 64.8 °F 92% 30.14 in 10.0 mi NNE 9.2 mph - N/A   Scattered Clouds
10:35 AM 68.5 °F 64.6 °F 87% 30.14 in 10.0 mi NE 8.1 mph - N/A   Scattered Clouds
10:55 AM 69.8 °F 63.9 °F 81% 30.14 in 10.0 mi NNE 10.4 mph - N/A   Scattered Clouds
11:15 AM 70.7 °F 64.0 °F 79% 30.13 in 10.0 mi NE 8.1 mph - N/A   Scattered Clouds
11:35 AM 71.1 °F 63.3 °F 76% 30.13 in 10.0 mi ENE 9.2 mph - N/A   Scattered Clouds
11:55 AM 71.1 °F 63.1 °F 76% 30.13 in 10.0 mi NE 9.2 mph - N/A   Scattered Clouds
12:15 PM 71.2 °F 63.0 °F 75% 30.12 in 10.0 mi ENE 5.8 mph - N/A   Scattered Clouds
12:35 PM 71.4 °F 62.6 °F 74% 30.12 in 10.0 mi East 8.1 mph - N/A   Clear
12:55 PM 71.2 °F 63.0 °F 75% 30.12 in 10.0 mi ENE 4.6 mph - N/A   Clear
1:15 PM 71.4 °F 63.0 °F 75% 30.12 in 10.0 mi NE 4.6 mph - N/A   Clear
1:35 PM 71.6 °F 62.4 °F 73% 30.11 in 10.0 mi NE 5.8 mph - N/A   Clear
1:55 PM 71.6 °F 62.2 °F 72% 30.11 in 10.0 mi ENE 5.8 mph - N/A   Clear
2:15 PM 71.4 °F 62.4 °F 73% 30.11 in 10.0 mi NE 5.8 mph - N/A   Clear
2:35 PM 71.4 °F 62.1 °F 72% 30.10 in 10.0 mi East 6.9 mph - N/A   Clear
3:15 PM 71.1 °F 62.4 °F 74% 30.10 in 10.0 mi East 8.1 mph - N/A   Scattered Clouds
3:35 PM 71.1 °F 63.3 °F 76% 30.08 in 10.0 mi ENE 8.1 mph - N/A   Scattered Clouds
3:55 PM 70.9 °F 63.1 °F 76% 30.08 in 10.0 mi ENE 6.9 mph - N/A   Clear
4:15 PM 70.3 °F 63.0 °F 77% 30.07 in 10.0 mi East 5.8 mph - N/A   Clear
4:35 PM 69.6 °F 62.6 °F 78% 30.08 in 10.0 mi ESE 4.6 mph - N/A   Clear
4:55 PM 68.9 °F 62.8 °F 81% 30.07 in 10.0 mi East 4.6 mph - N/A   Clear
5:15 PM 68.7 °F 63.0 °F 82% 30.07 in 10.0 mi East 5.8 mph - N/A   Scattered Clouds
5:35 PM 67.8 °F 63.0 °F 84% 30.07 in 10.0 mi East 4.6 mph - N/A   Scattered Clouds
5:55 PM 67.3 °F 63.1 °F 87% 30.08 in 10.0 mi East 3.5 mph - N/A   Clear
6:15 PM 66.6 °F 62.4 °F 86% 30.07 in 10.0 mi Calm Calm - N/A   Clear
6:35 PM 65.7 °F 62.4 °F 89% 30.07 in 10.0 mi Calm Calm - N/A   Clear
6:55 PM 65.3 °F 62.8 °F 92% 30.07 in 10.0 mi Calm Calm - N/A   Clear
7:15 PM 64.8 °F 63.0 °F 94% 30.07 in 10.0 mi Calm Calm - N/A   Clear
7:35 PM 64.4 °F 62.8 °F 94% 30.06 in 10.0 mi Calm Calm - N/A   Clear
7:55 PM 63.7 °F 62.4 °F 96% 30.07 in 10.0 mi Calm Calm - N/A   Clear
8:15 PM 62.2 °F 61.7 °F 98% 30.06 in 10.0 mi Calm Calm - N/A   Clear
8:35 PM 61.9 °F 61.5 °F 99% 30.05 in 10.0 mi Calm Calm - N/A   Clear
8:55 PM 61.3 °F 61.0 °F 99% 30.05 in 10.0 mi Calm Calm - N/A   Clear
9:15 PM 61.3 °F 61.0 °F 99% 30.04 in 10.0 mi Calm Calm - N/A   Clear
9:35 PM 61.2 °F 61.2 °F 100% 30.05 in 10.0 mi Calm Calm - N/A   Clear
9:55 PM 60.8 °F 60.8 °F 100% 30.05 in 10.0 mi Calm Calm - N/A   Clear
10:15 PM 60.8 °F 60.6 °F 99% 30.04 in 10.0 mi Calm Calm - N/A   Clear
10:35 PM 60.8 °F 60.6 °F 99% 30.04 in 10.0 mi Calm Calm - N/A   Clear
10:55 PM 60.6 °F 60.6 °F 100% 30.04 in 10.0 mi Calm Calm - N/A   Clear
11:15 PM 59.9 °F 59.7 °F 99% 30.03 in 10.0 mi Calm Calm - N/A   Clear
11:35 PM 60.4 °F 60.1 °F 99% 30.03 in 10.0 mi Calm Calm - N/A   Clear